C/2022 P3 ( ZTF )

Japanese version
Home page
Updated on November 13, 2022

---------------------------------------------------------------------

* Profile

Discovery Date August 2, 2022
Magnitude 19.4 mag
Discoverer Zwicky Transient Facility (ZTF) Collaboration

* Pictures

* Orbital Elements

Epoch 2022 Aug. 9.0 TT = JDT 2459800.5
T 2022 July 27.32397 TT                                 Rudenko
q   2.5612104            (2000.0)            P               Q
z  +0.0041346      Peri.    0.08548     +0.30439727     -0.48351709
 +/-0.0000002      Node    72.23472     +0.87343090     -0.20210686
e   0.9894103      Incl.   59.51911     +0.38007995     +0.85168307
>From 216 observations 2022 Aug. 2-Nov. 6, mean residual 0".5.

* Magnitudes Graph

        m1 = 11.5 + 5 log d + 10.0 log r

---------------------------------------------------------------------

The orbital elements are published on M.P.E.C. 2022-V125.
The magnitudes graphs are made with Comet for Windows.

---------------------------------------------------------------------

Copyright(C) Seiichi Yoshida (comet@aerith.net). All rights reserved.